This demonstration page uses our WeatherBlox Daily Observations layout. Learn more.

Left ArrowRight Arrow

39.01783, -85.05884

Hourly Observations for March 14, 2015

Temp ( °F °C ) Dew Point ( °F °C ) Humidity (%) Winds ( mph kmh ) Pressure ( in mb ) Visibility ( mi km ) Precip ( " mm )
12:52 am 00:52 Cloudy with Light Rain 52 11.1 51 10.6 97 97 S 6 9 30.03 1017 5 8 0.04 1.02
1:52 am 01:52 Cloudy with Light Rain 53 11.7 51 10.6 93 93 SSW 8 13 30.01 1016 5 8 0.04 1.02
2:52 am 02:52 Cloudy with Light Rain 53 11.7 52 11.1 96 96 SSW 7 11 29.99 1016 6 10 0.06 1.52
3:23 am 03:23 Cloudy with Light Rain 54 12 52 11 94 94 SSW 7 11 30.00 1016 5 8 0.04 1.02
3:52 am 03:52 Cloudy with Light Rain 54 12.2 52 11.1 93 93 SSW 8 13 29.97 1015 7 11 0.07 1.78
4:52 am 04:52 Cloudy with Rain 54 12.2 52 11.1 93 93 SW 8 13 29.95 1014 3 5 0.14 3.56
5:00 am 05:00 Cloudy with Heavy Rain 54 12 52 11 94 94 SSW 7 11 29.97 1015 2 3 0.00 0.00
5:17 am 05:17 Cloudy with Rain 54 12 52 11 94 94 SW 6 9 29.94 1014 3 4 0.17 4.32
5:27 am 05:27 Cloudy with Heavy Rain 54 12 52 11 94 94 WSW 6 9 29.97 1015 2 3 0.23 5.84
5:33 am 05:33 Cloudy with Rain 54 12 52 11 94 94 WSW 6 9 29.97 1015 2 3 0.25 6.35
5:47 am 05:47 Cloudy with Rain 54 12 52 11 94 94 SW 7 11 29.97 1015 3 5 0.30 7.62
5:52 am 05:52 Cloudy with Light Rain 54 12.2 52 11.1 93 93 SW 6 9 29.96 1015 3 5 0.31 7.87
6:52 am 06:52 Cloudy with Light Rain 54 12.2 52 11.1 93 93 SW 6 9 29.96 1015 4 6 0.05 1.27
7:08 am 07:08 Cloudy with Light Rain 54 12 52 11 94 94 SW 7 11 29.97 1015 3 4 0.01 0.25
7:36 am 07:36 Cloudy with Light Rain 54 12 52 11 94 94 WSW 7 11 29.97 1015 3 5 0.00 0.00
7:52 am 07:52 Cloudy with Light Rain 54 12.2 52 11.1 93 93 WSW 6 9 29.96 1015 5 8 0.05 1.27
8:30 am 08:30 Cloudy with Light Rain 54 12 52 11 94 94 WSW 5 7 29.97 1015 3 5 0.00 0.00
8:38 am 08:38 Cloudy with Mist and Fog 54 12 52 11 94 94 WSW 6 9 29.97 1015 1 2 0.00 0.00
8:52 am 08:52 Cloudy with Light Rain 54 12.2 52 11.1 93 93 WSW 7 11 29.97 1015 1 2 0.03 0.76
9:52 am 09:52 Cloudy 54 12.2 53 11.7 97 97 SW 6 9 29.97 1015 1 2 0.00 0.03
10:34 am 10:34 Cloudy 55 13 54 12 94 94 SW 6 9 29.97 1015 10 16 0.00 0.00
10:52 am 10:52 Cloudy with Light Rain 55 12.8 53 11.7 93 93 W 8 13 29.96 1014 10 16 0.00 0.03
11:52 am 11:52 Cloudy 54 12.2 52 11.1 93 93 WNW 10 17 29.97 1015 9 14 0.00 0.03
12:52 pm 12:52 Cloudy 56 13.3 52 11.1 87 87 NW 12 19 29.96 1015 10 16 0.00 0.00
1:52 pm 13:52 Cloudy 57 13.9 51 10.6 81 81 WNW 8 13 29.96 1015 10 16 0.00 0.00
2:52 pm 14:52 Cloudy 59 15 50 10 72 72 NW 12 19 29.95 1014 10 16 0.00 0.00
3:29 pm 15:29 Mostly Cloudy 61 16 48 9 63 63 NW 13 20 29.94 1014 8 13 0.00 0.00
3:52 pm 15:52 Mostly Cloudy 61 16.1 48 8.9 63 63 NW 13 20 29.94 1014 8 13 0.00 0.00
4:52 pm 16:52 Mostly Cloudy 61 16.1 46 7.8 58 58 WNW 13 20 29.96 1015 10 16 0.00 0.00
5:52 pm 17:52 Mostly Cloudy 59 15 42 5.6 54 54 NW 15 24 29.97 1015 10 16 0.00 0.00
6:52 pm 18:52 Mostly Cloudy 57 13.9 43 6.1 60 60 WNW 16 26 30.00 1016 10 16 0.00 0.00
7:52 pm 19:52 Mostly Cloudy 53 11.7 40 4.4 61 61 WNW 10 17 30.02 1017 10 16 0.00 0.00
8:52 pm 20:52 Mostly Cloudy 52 11.1 41 5 66 66 NW 6 9 30.05 1018 10 16 0.00 0.00
9:52 pm 21:52 Mostly Cloudy 51 10.6 38 3.3 61 61 NW 9 15 30.08 1019 10 16 0.00 0.00
11:52 pm 23:52 Mostly Cloudy 47 8.3 37 2.8 69 69 W 6 9 30.12 1020 10 16 0.00 0.00

Powered by AerisWeather